Time,TemperatureF,DewpointF,PressureIn,WindDirection,WindDirectionDegrees,WindSpeedMPH,WindSpeedGustMPH,Humidity,HourlyPrecipIn,Conditions,Clouds,dailyrainin,SoftwareType,DateUTC
2013-05-08 00:02:00,60.0,51.0,30.00,ESE,115,2.0,4.0,70,-99.99,,,-99.99,,2013-05-08 05:02:00,
2013-05-08 00:12:00,60.0,51.0,30.00,SE,125,2.0,3.0,71,-99.99,,,-99.99,,2013-05-08 05:12:00,
2013-05-08 00:22:00,60.0,51.0,30.00,SE,125,2.0,3.0,71,-99.99,,,-99.99,,2013-05-08 05:22:00,
2013-05-08 00:32:00,59.0,51.0,30.00,ESE,115,4.0,6.0,75,-99.99,,,-99.99,,2013-05-08 05:32:00,
2013-05-08 00:42:00,59.0,50.0,30.01,SE,125,3.0,6.0,73,-99.99,,,-99.99,,2013-05-08 05:42:00,
2013-05-08 00:52:00,59.0,50.0,30.01,SE,125,3.0,6.0,73,-99.99,,,-99.99,,2013-05-08 05:52:00,
2013-05-08 01:00:00,58.0,50.0,30.00,SE,140,3.0,3.0,73,-99.99,,,-99.99,,2013-05-08 06:00:00,
2013-05-08 01:01:00,58.0,50.0,30.01,SE,125,4.0,5.0,74,-99.99,,,-99.99,,2013-05-08 06:01:00,
2013-05-08 01:12:00,58.0,50.0,30.00,ESE,115,3.0,4.0,74,-99.99,,,-99.99,,2013-05-08 06:12:00,
2013-05-08 01:21:00,58.0,50.0,30.00,ESE,115,3.0,4.0,74,-99.99,,,-99.99,,2013-05-08 06:21:00,
2013-05-08 01:32:00,58.0,49.0,30.00,ESE,115,2.0,3.0,73,-99.99,,,-99.99,,2013-05-08 06:32:00,
2013-05-08 01:42:00,58.0,50.0,30.00,SE,140,3.0,3.0,73,-99.99,,,-99.99,,2013-05-08 06:42:00,
2013-05-08 01:52:00,58.0,50.0,30.00,SE,140,3.0,3.0,73,-99.99,,,-99.99,,2013-05-08 06:52:00,
2013-05-08 02:11:00,58.0,49.0,30.00,ESE,120,3.0,3.0,74,-99.99,,,-99.99,,2013-05-08 07:11:00,
2013-05-08 02:21:00,58.0,49.0,30.00,ESE,120,3.0,3.0,74,-99.99,,,-99.99,,2013-05-08 07:21:00,
2013-05-08 02:32:00,57.0,49.0,30.00,SE,125,4.0,5.0,74,-99.99,,,-99.99,,2013-05-08 07:32:00,
2013-05-08 02:42:00,58.0,49.0,29.99,SE,135,5.0,6.0,73,-99.99,,,-99.99,,2013-05-08 07:42:00,
2013-05-08 02:52:00,58.0,49.0,29.99,SE,135,5.0,6.0,73,-99.99,,,-99.99,,2013-05-08 07:52:00,
2013-05-08 03:01:00,58.0,49.0,29.99,SE,135,4.0,6.0,73,-99.99,,,-99.99,,2013-05-08 08:01:00,
2013-05-08 03:12:00,58.0,49.0,29.99,ESE,115,5.0,6.0,73,-99.99,,,-99.99,,2013-05-08 08:12:00,
2013-05-08 03:21:00,57.0,49.0,29.99,SE,145,5.0,7.0,75,-99.99,,,-99.99,,2013-05-08 08:21:00,
2013-05-08 03:32:00,57.0,49.0,29.99,SE,145,5.0,7.0,75,-99.99,,,-99.99,,2013-05-08 08:32:00,
2013-05-08 03:42:00,57.0,50.0,29.99,SE,145,4.0,7.0,76,-99.99,,,-99.99,,2013-05-08 08:42:00,
2013-05-08 03:51:00,57.0,50.0,29.99,SE,145,4.0,7.0,76,-99.99,,,-99.99,,2013-05-08 08:51:00,
2013-05-08 04:02:00,57.0,49.0,29.98,SE,145,5.0,9.0,76,-99.99,,,-99.99,,2013-05-08 09:02:00,
2013-05-08 04:11:00,55.0,49.0,29.99,SE,145,3.0,5.0,79,-99.99,,,-99.99,,2013-05-08 09:11:00,
2013-05-08 04:21:00,55.0,49.0,29.99,SE,145,3.0,5.0,79,-99.99,,,-99.99,,2013-05-08 09:21:00,
2013-05-08 04:32:00,55.0,49.0,29.98,SSE,150,3.0,6.0,81,-99.99,,,-99.99,,2013-05-08 09:32:00,
2013-05-08 04:42:00,55.0,49.0,29.98,SSE,150,4.0,6.0,80,-99.99,,,-99.99,,2013-05-08 09:42:00,
2013-05-08 04:52:00,55.0,49.0,29.98,SSE,150,4.0,6.0,80,-99.99,,,-99.99,,2013-05-08 09:52:00,
2013-05-08 05:02:00,55.0,49.0,29.98,SE,125,3.0,5.0,81,-99.99,,,-99.99,,2013-05-08 10:02:00,
2013-05-08 05:12:00,55.0,49.0,29.98,SE,130,4.0,5.0,81,-99.99,,,-99.99,,2013-05-08 10:12:00,
2013-05-08 05:22:00,55.0,49.0,29.98,SE,130,4.0,5.0,81,-99.99,,,-99.99,,2013-05-08 10:22:00,
2013-05-08 05:33:00,55.0,50.0,29.98,SE,125,5.0,6.0,81,-99.99,,,-99.99,,2013-05-08 10:33:00,
2013-05-08 05:42:00,55.0,49.0,29.98,SE,130,5.0,7.0,80,-99.99,,,-99.99,,2013-05-08 10:42:00,
2013-05-08 05:52:00,55.0,49.0,29.98,SE,130,5.0,7.0,80,-99.99,,,-99.99,,2013-05-08 10:52:00,
2013-05-08 06:00:00,55.0,49.0,29.99,SE,145,4.0,6.0,79,-99.99,,,-99.99,,2013-05-08 11:00:00,
2013-05-08 06:02:00,56.0,50.0,29.98,SE,140,6.0,8.0,78,-99.99,,,-99.99,,2013-05-08 11:02:00,
2013-05-08 06:11:00,55.0,49.0,29.98,SE,130,4.0,7.0,79,-99.99,,,-99.99,,2013-05-08 11:11:00,
2013-05-08 06:22:00,55.0,49.0,29.98,SE,130,4.0,7.0,79,-99.99,,,-99.99,,2013-05-08 11:22:00,
2013-05-08 06:32:00,56.0,49.0,29.99,SE,145,4.0,7.0,79,-99.99,,,-99.99,,2013-05-08 11:32:00,
2013-05-08 06:42:00,55.0,49.0,29.99,SE,145,4.0,6.0,79,-99.99,,,-99.99,,2013-05-08 11:42:00,
2013-05-08 06:52:00,55.0,49.0,29.99,SE,145,4.0,6.0,79,-99.99,,,-99.99,,2013-05-08 11:52:00,
2013-05-08 07:11:00,55.0,49.0,30.00,SE,140,4.0,6.0,79,-99.99,,,-99.99,,2013-05-08 12:11:00,
2013-05-08 07:21:00,55.0,49.0,30.00,SE,140,4.0,6.0,79,-99.99,,,-99.99,,2013-05-08 12:21:00,
2013-05-08 07:32:00,56.0,50.0,30.01,SSE,150,7.0,10.0,78,-99.99,,,-99.99,,2013-05-08 12:32:00,
2013-05-08 07:41:00,57.0,50.0,30.01,SE,145,5.0,9.0,77,-99.99,,,-99.99,,2013-05-08 12:41:00,
2013-05-08 07:51:00,57.0,50.0,30.01,SE,145,5.0,9.0,77,-99.99,,,-99.99,,2013-05-08 12:51:00,
2013-05-08 08:00:00,62.0,52.0,30.02,SE,130,4.0,6.0,71,-99.99,,,-99.99,,2013-05-08 13:00:00,
2013-05-08 08:01:00,57.0,50.0,30.02,SE,140,5.0,6.0,77,-99.99,,,-99.99,,2013-05-08 13:01:00,
2013-05-08 08:11:00,58.0,50.0,30.02,SE,135,4.0,7.0,76,-99.99,,,-99.99,,2013-05-08 13:11:00,
2013-05-08 08:21:00,58.0,50.0,30.02,SE,135,4.0,7.0,76,-99.99,,,-99.99,,2013-05-08 13:21:00,
2013-05-08 08:32:00,60.0,52.0,30.02,SE,140,4.0,7.0,73,-99.99,,,-99.99,,2013-05-08 13:32:00,
2013-05-08 08:42:00,62.0,52.0,30.02,SE,130,4.0,6.0,71,-99.99,,,-99.99,,2013-05-08 13:42:00,
2013-05-08 08:52:00,62.0,52.0,30.02,SE,130,4.0,6.0,71,-99.99,,,-99.99,,2013-05-08 13:52:00,
2013-05-08 09:11:00,64.0,53.0,30.03,SSE,150,5.0,6.0,67,-99.99,,,-99.99,,2013-05-08 14:11:00,
2013-05-08 09:21:00,64.0,53.0,30.03,SSE,150,5.0,6.0,67,-99.99,,,-99.99,,2013-05-08 14:21:00,
2013-05-08 09:32:00,65.0,55.0,30.04,East,95,2.0,5.0,70,-99.99,,,-99.99,,2013-05-08 14:32:00,
2013-05-08 09:42:00,66.0,55.0,30.04,SE,135,3.0,5.0,67,-99.99,,,-99.99,,2013-05-08 14:42:00,
2013-05-08 09:51:00,66.0,55.0,30.04,SE,135,3.0,5.0,67,-99.99,,,-99.99,,2013-05-08 14:51:00,
2013-05-08 10:02:00,67.0,54.0,30.04,SE,140,4.0,7.0,63,-99.99,,,-99.99,,2013-05-08 15:02:00,
2013-05-08 10:11:00,67.0,55.0,30.04,ESE,105,3.0,4.0,65,-99.99,,,-99.99,,2013-05-08 15:11:00,
2013-05-08 10:21:00,67.0,55.0,30.04,ESE,105,3.0,4.0,65,-99.99,,,-99.99,,2013-05-08 15:21:00,
2013-05-08 10:33:00,70.0,52.0,30.05,SSW,210,4.0,9.0,53,-99.99,,,-99.99,,2013-05-08 15:33:00,
2013-05-08 10:42:00,71.0,53.0,30.05,SSW,205,2.0,8.0,54,-99.99,,,-99.99,,2013-05-08 15:42:00,
2013-05-08 10:52:00,71.0,53.0,30.05,SSW,205,2.0,8.0,54,-99.99,,,-99.99,,2013-05-08 15:52:00,
2013-05-08 11:03:00,71.0,52.0,30.05,SSW,195,1.0,6.0,52,-99.99,,,-99.99,,2013-05-08 16:03:00,
2013-05-08 11:12:00,71.0,52.0,30.05,WSW,245,2.0,5.0,51,-99.99,,,-99.99,,2013-05-08 16:12:00,
2013-05-08 11:23:00,71.0,52.0,30.05,WSW,245,2.0,5.0,51,-99.99,,,-99.99,,2013-05-08 16:23:00,
2013-05-08 11:33:00,71.0,52.0,30.05,SW,215,2.0,7.0,51,-99.99,,,-99.99,,2013-05-08 16:33:00,
2013-05-08 11:42:00,71.0,52.0,30.06,West,280,6.0,9.0,51,-99.99,,,-99.99,,2013-05-08 16:42:00,
2013-05-08 11:50:00,70.0,53.0,30.05,West,275,4.0,5.0,55,-99.99,,,-99.99,,2013-05-08 16:50:00,
2013-05-08 11:52:00,71.0,52.0,30.06,West,280,6.0,9.0,51,-99.99,,,-99.99,,2013-05-08 16:52:00,
2013-05-08 12:02:00,70.0,52.0,30.06,West,270,5.0,10.0,53,-99.99,,,-99.99,,2013-05-08 17:02:00,
2013-05-08 12:12:00,69.0,51.0,30.06,WNW,300,8.0,11.0,52,-99.99,,,-99.99,,2013-05-08 17:12:00,
2013-05-08 12:22:00,69.0,51.0,30.06,WNW,300,8.0,11.0,52,-99.99,,,-99.99,,2013-05-08 17:22:00,
2013-05-08 12:32:00,70.0,53.0,30.05,West,275,4.0,5.0,55,-99.99,,,-99.99,,2013-05-08 17:32:00,
2013-05-08 12:41:00,70.0,53.0,30.05,West,275,4.0,5.0,55,-99.99,,,-99.99,,2013-05-08 17:41:00,
2013-05-08 13:00:00,68.0,54.0,30.05,NW,305,4.0,6.0,60,-99.99,,,-99.99,,2013-05-08 18:00:00,
2013-05-08 13:02:00,68.0,52.0,30.05,NW,325,7.0,8.0,56,-99.99,,,-99.99,,2013-05-08 18:02:00,
2013-05-08 13:12:00,68.0,53.0,30.05,NW,325,3.0,6.0,58,-99.99,,,-99.99,,2013-05-08 18:12:00,
2013-05-08 13:21:00,68.0,53.0,30.05,NW,325,3.0,6.0,58,-99.99,,,-99.99,,2013-05-08 18:21:00,
2013-05-08 13:32:00,69.0,52.0,30.05,NW,310,3.0,6.0,56,-99.99,,,-99.99,,2013-05-08 18:32:00,
2013-05-08 13:42:00,68.0,54.0,30.05,NW,305,4.0,6.0,60,-99.99,,,-99.99,,2013-05-08 18:42:00,
2013-05-08 13:52:00,68.0,54.0,30.05,NW,305,4.0,6.0,60,-99.99,,,-99.99,,2013-05-08 18:52:00,
2013-05-08 14:11:00,67.0,56.0,30.06,WNW,285,8.0,12.0,66,-99.99,,,-99.99,,2013-05-08 19:11:00,
2013-05-08 14:22:00,67.0,56.0,30.06,WNW,285,8.0,12.0,66,-99.99,,,-99.99,,2013-05-08 19:22:00,
2013-05-08 14:32:00,66.0,56.0,30.07,WNW,285,5.0,13.0,70,-99.99,,,-99.99,,2013-05-08 19:32:00,
2013-05-08 14:42:00,66.0,57.0,30.08,NW,305,5.0,10.0,72,-99.99,,,-99.99,,2013-05-08 19:42:00,
2013-05-08 14:52:00,66.0,57.0,30.08,NW,305,5.0,10.0,72,-99.99,,,-99.99,,2013-05-08 19:52:00,
2013-05-08 15:02:00,64.0,55.0,30.06,SW,220,2.0,5.0,71,-99.99,,,-99.99,,2013-05-08 20:02:00,
2013-05-08 15:11:00,63.0,54.0,29.96,ESE,110,20.0,25.0,73,-99.99,,,-99.99,,2013-05-08 20:11:00,
2013-05-08 15:22:00,63.0,54.0,29.96,ESE,110,20.0,25.0,73,-99.99,,,-99.99,,2013-05-08 20:22:00,
2013-05-08 15:32:00,63.0,55.0,29.96,SE,125,7.0,18.0,74,-99.99,,,-99.99,,2013-05-08 20:32:00,
2013-05-08 15:42:00,63.0,54.0,29.96,SE,140,13.0,17.0,72,-99.99,,,-99.99,,2013-05-08 20:42:00,
2013-05-08 15:52:00,63.0,54.0,29.96,SE,140,13.0,17.0,72,-99.99,,,-99.99,,2013-05-08 20:52:00,
2013-05-08 16:00:00,66.0,55.0,29.97,South,185,6.0,9.0,69,-99.99,,,-99.99,,2013-05-08 21:00:00,
2013-05-08 16:01:00,64.0,55.0,29.96,SE,135,9.0,16.0,72,-99.99,,,-99.99,,2013-05-08 21:01:00,
2013-05-08 16:12:00,64.0,56.0,29.96,ESE,115,5.0,10.0,73,-99.99,,,-99.99,,2013-05-08 21:12:00,
2013-05-08 16:21:00,64.0,56.0,29.96,ESE,115,5.0,10.0,73,-99.99,,,-99.99,,2013-05-08 21:21:00,
2013-05-08 16:33:00,65.0,55.0,29.97,SE,145,4.0,7.0,69,-99.99,,,-99.99,,2013-05-08 21:33:00,
2013-05-08 16:43:00,66.0,55.0,29.97,South,185,6.0,9.0,69,-99.99,,,-99.99,,2013-05-08 21:43:00,
2013-05-08 16:52:00,66.0,55.0,29.97,South,185,6.0,9.0,69,-99.99,,,-99.99,,2013-05-08 21:52:00,
2013-05-08 17:12:00,67.0,56.0,29.96,SE,130,5.0,9.0,68,-99.99,,,-99.99,,2013-05-08 22:12:00,
2013-05-08 17:22:00,67.0,56.0,29.96,SE,130,5.0,9.0,68,-99.99,,,-99.99,,2013-05-08 22:22:00,
2013-05-08 17:33:00,67.0,56.0,29.95,ESE,115,6.0,9.0,68,-99.99,,,-99.99,,2013-05-08 22:33:00,
2013-05-08 17:42:00,67.0,56.0,29.95,SE,135,4.0,8.0,67,-99.99,,,-99.99,,2013-05-08 22:42:00,
2013-05-08 17:52:00,67.0,56.0,29.95,SE,135,4.0,8.0,67,-99.99,,,-99.99,,2013-05-08 22:52:00,
2013-05-08 18:01:00,68.0,57.0,29.95,ESE,110,5.0,7.0,67,-99.99,,,-99.99,,2013-05-08 23:01:00,
2013-05-08 18:11:00,69.0,57.0,29.95,SE,125,3.0,5.0,66,-99.99,,,-99.99,,2013-05-08 23:11:00,
2013-05-08 18:22:00,69.0,57.0,29.95,SE,125,3.0,5.0,66,-99.99,,,-99.99,,2013-05-08 23:22:00,
2013-05-08 18:32:00,69.0,56.0,29.95,ESE,105,6.0,9.0,63,-99.99,,,-99.99,,2013-05-08 23:32:00,
2013-05-08 18:42:00,69.0,56.0,29.94,East,100,5.0,9.0,63,-99.99,,,-99.99,,2013-05-08 23:42:00,
2013-05-08 18:52:00,69.0,56.0,29.94,East,100,5.0,9.0,63,-99.99,,,-99.99,,2013-05-08 23:52:00,
2013-05-08 19:02:00,69.0,58.0,29.94,ENE,75,4.0,6.0,66,-99.99,,,-99.99,,2013-05-09 00:02:00,
2013-05-08 19:12:00,70.0,58.0,29.94,ENE,70,4.0,6.0,67,-99.99,,,-99.99,,2013-05-09 00:12:00,
2013-05-08 19:21:00,70.0,58.0,29.94,ENE,70,4.0,6.0,67,-99.99,,,-99.99,,2013-05-09 00:21:00,
2013-05-08 19:32:00,70.0,58.0,29.93,ENE,75,4.0,7.0,66,-99.99,,,-99.99,,2013-05-09 00:32:00,
2013-05-08 19:42:00,70.0,58.0,29.93,ENE,70,7.0,9.0,66,-99.99,,,-99.99,,2013-05-09 00:42:00,
2013-05-08 19:52:00,70.0,58.0,29.93,ENE,70,7.0,9.0,66,-99.99,,,-99.99,,2013-05-09 00:52:00,
2013-05-08 20:01:00,69.0,57.0,29.92,East,95,9.0,12.0,64,-99.99,,,-99.99,,2013-05-09 01:01:00,
2013-05-08 20:11:00,69.0,57.0,29.92,East,100,9.0,12.0,65,-99.99,,,-99.99,,2013-05-09 01:11:00,
2013-05-08 20:22:00,69.0,57.0,29.92,East,100,9.0,12.0,65,-99.99,,,-99.99,,2013-05-09 01:22:00,
2013-05-08 20:32:00,68.0,56.0,29.92,ESE,110,7.0,11.0,66,-99.99,,,-99.99,,2013-05-09 01:32:00,
2013-05-08 20:42:00,68.0,56.0,29.92,ESE,110,7.0,11.0,66,-99.99,,,-99.99,,2013-05-09 01:42:00,
2013-05-08 20:50:00,66.0,55.0,29.91,East,100,6.0,10.0,68,-99.99,,,-99.99,,2013-05-09 01:50:00,
2013-05-08 20:52:00,68.0,56.0,29.92,ESE,110,7.0,11.0,66,-99.99,,,-99.99,,2013-05-09 01:52:00,
2013-05-08 21:00:00,66.0,56.0,29.92,ESE,115,8.0,11.0,70,-99.99,,,-99.99,,2013-05-09 02:00:00,
2013-05-08 21:02:00,67.0,56.0,29.91,ESE,105,10.0,14.0,66,-99.99,,,-99.99,,2013-05-09 02:02:00,
2013-05-08 21:11:00,67.0,56.0,29.92,ESE,105,8.0,12.0,66,-99.99,,,-99.99,,2013-05-09 02:11:00,
2013-05-08 21:22:00,67.0,56.0,29.92,ESE,105,8.0,12.0,66,-99.99,,,-99.99,,2013-05-09 02:22:00,
2013-05-08 21:32:00,66.0,55.0,29.91,East,100,6.0,10.0,68,-99.99,,,-99.99,,2013-05-09 02:32:00,
2013-05-08 21:42:00,66.0,55.0,29.91,East,100,6.0,10.0,68,-99.99,,,-99.99,,2013-05-09 02:42:00,
2013-05-08 22:00:00,65.0,55.0,29.93,ESE,115,5.0,10.0,70,-99.99,,,-99.99,,2013-05-09 03:00:00,
2013-05-08 22:11:00,65.0,55.0,29.93,SE,140,8.0,12.0,69,-99.99,,,-99.99,,2013-05-09 03:11:00,
2013-05-08 22:21:00,65.0,55.0,29.93,SE,140,8.0,12.0,69,-99.99,,,-99.99,,2013-05-09 03:21:00,
2013-05-08 22:33:00,65.0,55.0,29.93,ESE,115,6.0,9.0,69,-99.99,,,-99.99,,2013-05-09 03:33:00,
2013-05-08 22:43:00,65.0,55.0,29.93,ESE,115,5.0,10.0,70,-99.99,,,-99.99,,2013-05-09 03:43:00,
2013-05-08 22:52:00,65.0,55.0,29.93,ESE,115,5.0,10.0,70,-99.99,,,-99.99,,2013-05-09 03:52:00,
2013-05-08 23:12:00,65.0,55.0,29.94,SE,125,6.0,10.0,69,-99.99,,,-99.99,,2013-05-09 04:12:00,
2013-05-08 23:23:00,65.0,55.0,29.94,SE,125,6.0,10.0,69,-99.99,,,-99.99,,2013-05-09 04:23:00,
2013-05-08 23:33:00,64.0,54.0,29.94,SE,140,6.0,9.0,70,-99.99,,,-99.99,,2013-05-09 04:33:00,
2013-05-08 23:43:00,64.0,54.0,29.95,SE,140,7.0,9.0,69,-99.99,,,-99.99,,2013-05-09 04:43:00,
2013-05-08 23:52:00,64.0,54.0,29.95,SE,140,7.0,9.0,69,-99.99,,,-99.99,,2013-05-09 04:52:00,